• In Belgium
  • List of Countries
  • For 7 days
  • Water Temperature
  • Satellite Maps
  • Weather Map
  • Weather Widgets
  • user-avatar
    Login

    Hourly Weather Amanzimtoti

    Today, 22 February, Thursday

    Time Temperature Precipitation Wind Pressure Humidity
    00:00 +25°C° 0.3 mm 2 mps 758 mmHg 95%
    01:00 +25°C° 0.3 mm 2 mps 757 mmHg 95%
    02:00 +24°C° 0.3 mm 2 mps 757 mmHg 95%
    03:00 +24°C° 0.2 mm 2 mps 757 mmHg 95%
    04:00 +24°C° 0.2 mm 2 mps 757 mmHg 95%
    05:00 +24°C° 0.2 mm 2 mps 757 mmHg 95%
    06:00 +25°C° 0 mm 1 mps 757 mmHg 92%
    07:00 +26°C° 0 mm 1 mps 757 mmHg 89%
    08:00 +27°C° 0 mm 1 mps 757 mmHg 86%
    09:00 +29°C° 0 mm 1 mps 756 mmHg 77%
    10:00 +30°C° 0 mm 2 mps 756 mmHg 69%
    11:00 +33°C° 0 mm 3 mps 756 mmHg 61%
    12:00 +33°C° 0 mm 4 mps 755 mmHg 61%
    13:00 +33°C° 0 mm 5 mps 755 mmHg 61%
    14:00 +34°C° 0 mm 6 mps 754 mmHg 61%
    15:00 +33°C° 0 mm 6 mps 754 mmHg 64%
    16:00 +32°C° 0 mm 6 mps 754 mmHg 68%
    17:00 +30°C° 0 mm 6 mps 754 mmHg 71%
    18:00 +29°C° 0 mm 6 mps 754 mmHg 79%
    19:00 +27°C° 0 mm 6 mps 754 mmHg 86%
    20:00 +26°C° 0 mm 6 mps 754 mmHg 93%
    21:00 +24°C° 0 mm 6 mps 754 mmHg 94%
    22:00 +24°C° 0 mm 6 mps 754 mmHg 94%
    23:00 +24°C° 0 mm 6 mps 754 mmHg 94%

    Tomorrow, 23 February, Friday

    Time Temperature Precipitation Wind Pressure Humidity
    00:00 +23°C° 0 mm 6 mps 753 mmHg 93%
    01:00 +23°C° 0 mm 6 mps 753 mmHg 93%
    02:00 +23°C° 0 mm 6 mps 752 mmHg 92%
    03:00 +23°C° 0 mm 6 mps 752 mmHg 90%
    04:00 +22°C° 0 mm 6 mps 752 mmHg 89%
    05:00 +22°C° 0 mm 7 mps 751 mmHg 87%
    06:00 +24°C° 0 mm 6 mps 751 mmHg 80%
    07:00 +27°C° 0 mm 6 mps 751 mmHg 72%
    08:00 +29°C° 0 mm 6 mps 751 mmHg 65%
    09:00 +32°C° 0 mm 7 mps 751 mmHg 57%
    10:00 +35°C° 0 mm 7 mps 750 mmHg 49%
    11:00 +39°C° 0 mm 7 mps 750 mmHg 40%
    12:00 +40°C° 0 mm 7 mps 749 mmHg 39%
    13:00 +40°C° 0 mm 8 mps 749 mmHg 38%
    14:00 +41°C° 0 mm 8 mps 748 mmHg 37%
    15:00 +40°C° 0 mm 8 mps 748 mmHg 43%
    16:00 +38°C° 0 mm 8 mps 748 mmHg 48%
    17:00 +37°C° 0 mm 8 mps 748 mmHg 54%
    18:00 +33°C° 0 mm 8 mps 748 mmHg 63%
    19:00 +31°C° 0 mm 8 mps 748 mmHg 72%
    20:00 +28°C° 0 mm 7 mps 749 mmHg 81%
    21:00 +27°C° 0 mm 7 mps 749 mmHg 80%
    22:00 +27°C° 0 mm 7 mps 749 mmHg 80%
    23:00 +26°C° 0 mm 7 mps 749 mmHg 79%

    Day after tomorrow, 24 February, Saturday

    Time Temperature Precipitation Wind Pressure Humidity
    00:00 +26°C° 0 mm 6 mps 749 mmHg 80%
    01:00 +26°C° 0 mm 5 mps 749 mmHg 80%
    02:00 +26°C° 0 mm 3 mps 749 mmHg 80%
    03:00 +26°C° 0 mm 4 mps 749 mmHg 83%
    04:00 +25°C° 0 mm 4 mps 749 mmHg 85%
    05:00 +25°C° 0 mm 4 mps 750 mmHg 87%
    06:00 +26°C° 0.1 mm 4 mps 750 mmHg 86%
    07:00 +27°C° 0.1 mm 4 mps 750 mmHg 85%
    08:00 +27°C° 0.1 mm 4 mps 751 mmHg 84%
    09:00 +29°C° 0 mm 4 mps 751 mmHg 76%
    10:00 +32°C° 0 mm 5 mps 751 mmHg 68%
    11:00 +34°C° 0 mm 5 mps 750 mmHg 61%
    12:00 +33°C° 0 mm 5 mps 750 mmHg 67%
    13:00 +30°C° 0 mm 6 mps 750 mmHg 74%
    14:00 +29°C° 0 mm 6 mps 749 mmHg 81%
    15:00 +28°C° 0.2 mm 6 mps 750 mmHg 85%
    16:00 +27°C° 0.2 mm 6 mps 750 mmHg 88%
    17:00 +26°C° 0.2 mm 7 mps 750 mmHg 92%
    18:00 +26°C° 0.9 mm 6 mps 751 mmHg 94%
    19:00 +24°C° 0.9 mm 6 mps 752 mmHg 95%
    20:00 +24°C° 0.9 mm 6 mps 753 mmHg 97%
    21:00 +23°C° 0.6 mm 6 mps 753 mmHg 97%
    22:00 +23°C° 0.6 mm 6 mps 754 mmHg 96%
    23:00 +23°C° 0.6 mm 6 mps 754 mmHg 96%

    25 February, Sunday

    Time Temperature Precipitation Wind Pressure Humidity
    00:00 +23°C° 0.6 mm 7 mps 754 mmHg 96%
    01:00 +22°C° 0.6 mm 7 mps 755 mmHg 96%
    02:00 +22°C° 0.6 mm 7 mps 755 mmHg 96%
    03:00 +22°C° 0.6 mm 7 mps 755 mmHg 96%
    04:00 +21°C° 0.6 mm 7 mps 756 mmHg 95%
    05:00 +21°C° 0.6 mm 8 mps 756 mmHg 95%
    06:00 +20°C° 0.4 mm 8 mps 757 mmHg 94%
    07:00 +20°C° 0.4 mm 8 mps 758 mmHg 93%
    08:00 +20°C° 0.4 mm 8 mps 758 mmHg 92%
    09:00 +18°C° 0.4 mm 8 mps 759 mmHg 91%
    10:00 +18°C° 0.4 mm 7 mps 759 mmHg 89%
    11:00 +18°C° 0.4 mm 7 mps 759 mmHg 88%
    12:00 +20°C° 0.2 mm 7 mps 759 mmHg 85%
    13:00 +20°C° 0.2 mm 7 mps 759 mmHg 81%
    14:00 +21°C° 0.2 mm 7 mps 759 mmHg 78%
    15:00 +21°C° 0.2 mm 7 mps 759 mmHg 80%
    16:00 +21°C° 0.2 mm 6 mps 759 mmHg 81%
    17:00 +20°C° 0.2 mm 6 mps 759 mmHg 83%
    18:00 +20°C° 0.2 mm 6 mps 760 mmHg 86%
    19:00 +20°C° 0.2 mm 5 mps 760 mmHg 88%
    20:00 +19°C° 0.2 mm 5 mps 761 mmHg 91%
    21:00 +19°C° 0.1 mm 5 mps 761 mmHg 91%
    22:00 +19°C° 0.1 mm 4 mps 761 mmHg 91%
    23:00 +18°C° 0.1 mm 4 mps 761 mmHg 91%

    26 February, Monday

    Time Temperature Precipitation Wind Pressure Humidity
    00:00 +18°C° 0.1 mm 4 mps 760 mmHg 92%
    01:00 +18°C° 0.1 mm 3 mps 760 mmHg 92%
    02:00 +17°C° 0.1 mm 3 mps 760 mmHg 92%
    03:00 +17°C° 0.1 mm 3 mps 760 mmHg 92%
    04:00 +17°C° 0.1 mm 3 mps 760 mmHg 92%
    05:00 +16°C° 0.1 mm 2 mps 760 mmHg 92%
    06:00 +18°C° 0.1 mm 2 mps 760 mmHg 86%
    07:00 +20°C° 0.1 mm 2 mps 760 mmHg 81%
    08:00 +23°C° 0.1 mm 2 mps 760 mmHg 75%
    09:00 +24°C° 0.1 mm 2 mps 760 mmHg 69%
    10:00 +26°C° 0.1 mm 2 mps 760 mmHg 63%
    11:00 +27°C° 0.1 mm 2 mps 759 mmHg 57%
    12:00 +27°C° 0 mm 3 mps 759 mmHg 61%
    13:00 +27°C° 0 mm 4 mps 758 mmHg 65%
    14:00 +26°C° 0 mm 5 mps 758 mmHg 69%
    15:00 +25°C° 0 mm 5 mps 758 mmHg 73%
    16:00 +25°C° 0 mm 5 mps 758 mmHg 76%
    17:00 +23°C° 0 mm 5 mps 758 mmHg 80%
    18:00 +22°C° 0 mm 5 mps 758 mmHg 83%
    19:00 +22°C° 0 mm 5 mps 759 mmHg 85%
    20:00 +21°C° 0 mm 5 mps 759 mmHg 88%
    21:00 +20°C° 0 mm 5 mps 759 mmHg 90%
    22:00 +20°C° 0 mm 5 mps 759 mmHg 92%
    23:00 +19°C° 0 mm 5 mps 759 mmHg 93%

    27 February, Tuesday

    Time Temperature Precipitation Wind Pressure Humidity
    00:00 +19°C° 0 mm 5 mps 758 mmHg 94%
    01:00 +19°C° 0 mm 5 mps 758 mmHg 94%
    02:00 +19°C° 0 mm 5 mps 757 mmHg 94%
    03:00 +19°C° 0 mm 5 mps 757 mmHg 93%
    04:00 +19°C° 0 mm 5 mps 757 mmHg 93%
    05:00 +19°C° 0 mm 5 mps 757 mmHg 93%
    06:00 +20°C° 0 mm 5 mps 757 mmHg 87%
    07:00 +22°C° 0 mm 6 mps 757 mmHg 81%
    08:00 +24°C° 0 mm 6 mps 757 mmHg 75%
    09:00 +27°C° 0 mm 6 mps 756 mmHg 68%
    10:00 +29°C° 0 mm 7 mps 756 mmHg 62%
    11:00 +32°C° 0 mm 7 mps 755 mmHg 55%
    12:00 +33°C° 0 mm 8 mps 755 mmHg 56%
    13:00 +33°C° 0 mm 8 mps 754 mmHg 56%
    14:00 +34°C° 0 mm 8 mps 754 mmHg 57%
    15:00 +33°C° 0 mm 8 mps 753 mmHg 61%
    16:00 +32°C° 0 mm 8 mps 753 mmHg 66%
    17:00 +31°C° 0 mm 8 mps 753 mmHg 70%
    18:00 +28°C° 0 mm 8 mps 753 mmHg 77%
    19:00 +26°C° 0 mm 7 mps 754 mmHg 84%
    20:00 +23°C° 0 mm 7 mps 754 mmHg 91%
    21:00 +23°C° 0 mm 7 mps 754 mmHg 92%
    22:00 +23°C° 0 mm 6 mps 754 mmHg 92%
    23:00 +22°C° 0 mm 6 mps 754 mmHg 93%
    Show more